Regional Weather Roundup
Issued by NWS

Home | Current Version | Previous Version | Text Only | Print | Product List | Glossary Off
Versions: 1 2 3 4 5 6 7 8 9 10 11 12 13 14 15 16 17 18 19 20 21 22 23 24 25 26 27 28 29 30 31 32 33 34 35 36 37 38 39 40 41 42 43 44 45 46 47 48 49 50

000
ASUS43 KIND 211409
RWRIN

WEATHER ROUNDUP FOR INDIANA
NATIONAL WEATHER SERVICE INDIANAPOLIS IN
900 AM EST TUE FEB 21 2017

NOTE: "FAIR" INDICATES FEW OR NO CLOUDS BELOW 12,000 FEET WITH NO
SIGNIFICANT WEATHER AND/OR OBSTRUCTIONS TO VISIBILITY.

* - STATION DOES NOT REPORT WEATHER SUCH AS PRECIPITATION OR FOG.

+ - STATION NOT QUALITY CONTROLLED BY THE NATIONAL WEATHER SERVICE.
    USE DATA WITH CAUTION...ESPECIALLY DEWPOINT AND RELATIVE
    HUMIDITY OBSERVATIONS.

INZ001>003-010>013-019-020-211500-
NORTHWEST INDIANA

CITY           SKY/WX    TMP DP  RH WIND       PRES   REMARKS
GARY /AIRPORT/ CLOUDY    54  52  94 S8        29.94F FOG
KNOX *+        CLOUDY    52  34  50 CALM      29.97R
LA PORTE +     CLOUDY    51  49  93 S3        29.97F FOG
MICHIGAN CITY+ LGT RAIN  52  52 100 S5        29.95S
MONTICELLO +   LGT RAIN  52  48  86 CALM      29.97S
RENSSELAER +   RAIN      54  48  82 CALM      29.97R
VALPARAISO     CLOUDY    54  50  86 S8        29.96F FOG

$$

LMZ046-743>745-211500-
SOUTHERN LAKE MICHIGAN

STATION/POSITION TIME  TEMP    WIND        PRES    WAVE
                       AIR SEA DIR/SP/G            HT
                 (UTC) (F)     (DEG/KT/KT) (MB)    (FT)
BURNS HARBOR     1340   54     170/  8/ 14 1014.2S
MICHIGAN CITY    1340   53     150/ 11/ 13   N/A

$$

INZ004-005-014>016-021>024-211500-
NORTH CENTRAL INDIANA

CITY           SKY/WX    TMP DP  RH WIND       PRES   REMARKS
ELKHART        RAIN      50  48  93 CALM      29.97S
GOSHEN         LGT RAIN  53  43  68 S6        29.97S
LOGANSPORT +   DRIZZLE   50  46  87 CALM      29.99R
PERU/GRISSOM   CLOUDY    54  48  81 S6        29.97R
ROCHESTER +    LGT RAIN  54  46  76 CALM      29.98S
SOUTH BEND     LGT RAIN  51  49  92 S3        29.97S
WARSAW +       RAIN      52  45  76 CALM      29.97S

$$

INZ006>009-017-018-025>027-211500-
NORTHEAST INDIANA

CITY           SKY/WX    TMP DP  RH WIND       PRES   REMARKS
ANGOLA *+      MOSUNNY   46  41  81 CALM      29.97S
AUBURN +       CLOUDY    46  41  81 CALM      29.99R
FORT WAYNE     CLOUDY    50  43  77 SW5       29.98S
HUNTINGTON +   CLOUDY    53  43  69 SW5       29.98R
KENDALLVILLE + CLOUDY    50  42  74 SW5       29.98R

$$

INZ028-029-035-036-043>045-051>053-211500-
WEST CENTRAL INDIANA

CITY           SKY/WX    TMP DP  RH WIND       PRES   REMARKS
GREENCASTLE +  CLOUDY    52  45  76 CALM      30.00R
LAFAYETTE      CLOUDY    52  48  86 CALM      29.97S
TERRE HAUTE    CLOUDY    52  47  83 CALM      29.99R

$$

INZ030>032-037>040-046>048-054>057-064-065-211500-
CENTRAL INDIANA

CITY           SKY/WX    TMP DP  RH WIND       PRES   REMARKS
ANDERSON       SUNNY     55  45  67 S8        30.00
CP ATTERBURY + PTSUNNY   52  45  76 S5        30.01
COLUMBUS       PTSUNNY   46  46 100 CALM      30.01S
FRANKFORT +    CLOUDY    55  48  77 CALM      29.99F
GREENWOOD *+   CLOUDY    53  46  75 S5        30.00R
INDIANAPOLIS   CLOUDY    53  45  74 SE5       30.00R
-EAGLE CREEK   CLOUDY    54  45  71 CALM      30.00R
KOKOMO +       PTSUNNY   53  46  77 SW6       29.99R
MARION +       CLOUDY    52  43  72 S6        29.99S
MT COMFORT *+  CLOUDY    52  43  71 S9        30.01R
SHELBYVILLE    CLOUDY    55  44  66 S6        30.01R
ZIONSVILLE +   CLOUDY    51  45  79 S5        29.99F

$$

INZ033-034-041-042-049-050-058-059-211500-
EAST CENTRAL INDIANA

CITY           SKY/WX    TMP DP  RH WIND       PRES   REMARKS
MUNCIE         CLOUDY    57  43  59 SW7       29.99S

$$

INZ060-061-067>069-081>083-085>088-211500-
SOUTHWEST INDIANA

CITY           SKY/WX    TMP DP  RH WIND       PRES   REMARKS
EVANSVILLE     PTSUNNY   57  48  72 CALM      29.99R
HUNTINGBURG *+ CLOUDY    57  47  69 SE5       30.00R
WASHINGTON +   CLOUDY    55  45  69 S6        29.98S

$$

INZ062-063-066-070>080-084-089>092-211500-
SOUTH CENTRAL AND SOUTHEAST INDIANA

CITY           SKY/WX    TMP DP  RH WIND       PRES   REMARKS
BEDFORD +      PTSUNNY  N/A N/A N/A SE3       29.99
BLOOMINGTON    CLOUDY    54  44  69 SE3       29.99S
MADISON *+     CLOUDY    55  43  62 SE5       30.04F
NORTH VERNON + CLOUDY    55  43  62 SE5       30.01F

$$





USA.gov is the U.S. government's official web portal to all federal, state and local government web resources and services.